Location: Bonn
(50.7330°N, 7.1000°E)
Time: 05:33:02
(UTC+02:00)

Cosmos 1933 Rocket - Visible Passes

Search period start: 28 June 2017 00:00
Search period end: 08 July 2017 00:00
Orbit: 606 x 631 km, 82.5° (Epoch: 26 June)

Date Brightness Start Highest point End Pass type
(mag) Time Alt. Az. Time Alt. Az. Time Alt. Az.
28 Jun 3.5 01:04:20 27° S 01:06:40 89° W 01:11:04 10° N visible
28 Jun 6.0 02:43:20 10° W 02:45:15 13° WNW 02:47:10 10° NW visible
28 Jun 5.3 23:44:13 13° ESE 23:46:29 19° E 23:49:33 10° NE visible
29 Jun 4.1 01:21:21 22° SW 01:23:59 52° WNW 01:28:15 10° N visible
30 Jun 4.6 00:01:12 19° SE 00:03:30 31° E 00:07:23 10° NNE visible
30 Jun 5.0 01:38:21 15° SW 01:41:22 31° WNW 01:45:15 10° N visible
01 Jul 3.8 00:18:11 24° SSE 00:20:38 54° E 00:24:53 10° NNE visible
01 Jul 5.7 01:55:41 10° WSW 01:58:51 19° WNW 02:02:01 10° NNW visible
01 Jul 5.7 22:59:08 10° ESE 23:00:41 12° E 23:02:13 10° ENE visible
02 Jul 3.5 00:35:09 23° S 00:37:50 86° W 00:42:13 10° N visible
02 Jul 6.1 02:14:40 10° W 02:16:26 12° WNW 02:18:12 10° NW visible
02 Jul 5.2 23:14:58 12° SE 23:17:37 20° E 23:20:45 10° NE visible
03 Jul 4.2 00:52:06 18° SW 00:55:08 50° WNW 00:59:23 10° N visible
03 Jul 4.5 23:31:54 17° SE 23:34:39 32° E 23:38:32 10° NNE visible
04 Jul 5.1 01:09:01 12° SW 01:12:31 30° WNW 01:16:22 10° N visible
04 Jul 3.7 23:48:49 19° SSE 23:51:46 56° E 23:56:02 10° NNE visible
05 Jul 5.8 01:26:56 10° WSW 01:30:01 19° WNW 01:33:06 10° NNW visible
05 Jul 5.6 22:30:07 10° ESE 22:31:48 12° E 22:33:30 10° ENE visible
06 Jul 3.5 00:05:42 17° SSW 00:08:59 83° W 00:13:21 10° N visible
06 Jul 6.2 01:46:02 10° W 01:47:37 12° WNW 01:49:12 10° NW visible
06 Jul 5.1 22:45:34 10° SE 22:48:45 20° E 22:51:57 10° NE visible
07 Jul 4.3 00:22:33 13° SSW 00:26:17 48° WNW 00:30:31 10° N visible
07 Jul 4.4 23:02:16 12° SSE 23:05:47 34° E 23:09:43 10° NNE visible
